User: anonymous   Login
Location: Newark
(46.2358°N, 112.1211°W)
Time: 02:23:07
(UTC+00:00)
Language:

SO-50 - Orbit

View from above orbital plane
View from above orbital plane
View from above satellite
View from above satellite

Ground track
Ground track

The orbit data is extracted from the following two-line orbital elements,

1 27607U 02058C   20192.68108112 -.00000043  00000-0  14379-4 0  9994
2 27607  64.5562 303.3513 0045031 170.2319 189.9670 14.75645182944286
Epoch (UTC): 10 July 2020 16:20:45
Eccentricity: 0.0045031
inclination: 64.5562°
perigee height: 611 km
apogee height: 675 km
right ascension of ascending node: 303.3513°
argument of perigee: 170.2319°
revolutions per day: 14.75645182
mean anomaly at epoch: 189.9670°
orbit number at epoch: 94428

The dashed part of the orbit path shows where the satellite is in the earth's shadow,  

DLR